STARLINK-2010 (47634 NORAD) Tracking and Keplerian Element Data

This shows tracking and keplerian element data for the satellite.

Feedback or suggestion? Click here.




ElementValue
Catalog47634
NameSTARLINK-2010
Epoch Orbit181
Epoch Day99.91667824
Epoch Year2021
RAAN208.655
Inclination53.0535
Eccentricity0.0001198
Argument of Perigee75.9299
Mean Anonmoly269.9642
Mean Motion15.06429394
Decay Rate-0.00034077
L11 47634U 21012Q 21099.91667824 -.00034077 00000-0 -22780-2 0 9998
L22 47634 53.0535 208.6550 0001198 75.9299 269.9642 15.06429394 1814

Live tracking and technical data element details for STARLINK-2010 (NORAD 47634). STARLINK-2010 can be tracked NOW for your location showing map with azimuth and elevation plus other details from your city location.

Track the satellite on the map from your city or location and see movement details for azimuth, elevation, latitude, longitude, range, height, and movement on the map or in text.







IsCatalogInMostPopularTable: catalog: 47634, numindb: 17
Update: records affected: 1



GetName: 47634 STARLINK-2010

Hit Count: updated at: Sat, 10 Apr 2021 18:48:01 GMT